PWSweather.com
Personal Weather Stations
Station Observations
IHTIMAN1
Neighbourhood 1, IhtimanBG 2050

Neighbourhood 1IhtimanBG 2050

Lat: 42.436852, Lon: 23.817921

Elevation: 2066

Station Type: Oregon Scientific WMR968

http://ihtiman-meteo.com

Latest ConditionsUpdated 8:30:04 AM GMT+02:02 Friday, May 24, 2019
Currently Today's Max Today's Min Today's Average
Temperature 59.4°F15.2°C 59.8°F15.4°C 53.1°F11.7°C 54.7°F12.6°C
Dew Point 50.7°F10.4°C 56.0°F13.3°C 50.7°F10.4°C 53.5°F11.9°C
Winds 9.2 mph NNW14.8 kmh NNW 9.2 mph -14.8 kmh - - 1.7 mph 2.7 kmh
Wind Gusts 11.5 mph18.5 kmh 12.7 mph20.4 kmh - -
Humidity 73% 98% 73% 96%
Pressure 29.82 in1009.8 mb 29.88 in1011.9 mb 29.82 in1009.8 mb -
Precipitation - 0.05 in1.3 mm - -
Hour Temp Dew Point Humidity Winds Wind Gusts Pressure Precip Precip Rate Daily Precip Total
08:30 AM 59.4°F15.2°C 50.7°F10.4°C 73% 9.2 mph NNW14.8 kmh NNW 11.5 mph18.5 kmh 29.82 in1009.8 mb - 0.00 in0.0 mm 0.05 in1.3 mm
08:20 AM 59.8°F15.4°C 53.3°F11.8°C 79% 6.9 mph NNW11.1 kmh NNW 12.7 mph20.4 kmh 29.82 in1009.8 mb - 0.00 in0.0 mm 0.05 in1.3 mm
08:10 AM 58.9°F14.9°C 52.7°F11.5°C 80% 6.9 mph NNW11.1 kmh NNW 9.2 mph14.8 kmh 29.82 in1009.8 mb - 0.00 in0.0 mm 0.05 in1.3 mm
08:00 AM 58.9°F14.9°C 53.4°F11.9°C 82% 8.1 mph NW13.0 kmh NW 12.7 mph20.4 kmh 29.82 in1009.8 mb - 0.00 in0.0 mm 0.05 in1.3 mm
07:50 AM 58.8°F14.9°C 54.0°F12.2°C 84% 8.1 mph NW13.0 kmh NW 10.4 mph16.7 kmh 29.82 in1009.8 mb - 0.00 in0.0 mm 0.05 in1.3 mm
07:40 AM 58.4°F14.7°C 55.2°F12.9°C 89% 6.9 mph N11.1 kmh N 11.5 mph18.5 kmh 29.82 in1009.8 mb - 0.00 in0.0 mm 0.05 in1.3 mm
07:30 AM 57.7°F14.3°C 56.0°F13.3°C 94% 4.6 mph N7.4 kmh N 5.8 mph9.3 kmh 29.82 in1009.8 mb - 0.00 in0.0 mm 0.05 in1.3 mm
07:20 AM 56.2°F13.4°C 55.6°F13.1°C 98% 4.6 mph N7.4 kmh N 8.1 mph13.0 kmh 29.82 in1009.8 mb - 0.00 in0.0 mm 0.05 in1.3 mm
07:10 AM 53.9°F12.2°C 53.4°F11.9°C 98% 3.5 mph N5.6 kmh N 8.1 mph13.0 kmh 29.82 in1009.8 mb - 0.00 in0.0 mm 0.05 in1.3 mm
07:00 AM 53.1°F11.7°C 52.5°F11.4°C 98% 3.5 mph 5.6 kmh 5.8 mph9.3 kmh 29.82 in1009.8 mb - 0.00 in0.0 mm 0.05 in1.3 mm
06:40 AM 53.1°F11.7°C 52.5°F11.4°C 98% 3.5 mph N5.6 kmh N 5.8 mph9.3 kmh 29.82 in1009.8 mb - 0.00 in0.0 mm 0.05 in1.3 mm
06:30 AM 53.1°F11.7°C 52.5°F11.4°C 98% 2.3 mph N3.7 kmh N 4.6 mph7.4 kmh 29.82 in1009.8 mb - 0.00 in0.0 mm 0.05 in1.3 mm
06:20 AM 53.1°F11.7°C 52.5°F11.4°C 98% 1.2 mph N1.9 kmh N 6.9 mph11.1 kmh 29.82 in1009.8 mb - 0.00 in0.0 mm 0.05 in1.3 mm
06:10 AM 53.1°F11.7°C 52.5°F11.4°C 98% 4.6 mph N7.4 kmh N 5.8 mph9.3 kmh 29.82 in1009.8 mb - 0.00 in0.0 mm 0.05 in1.3 mm
06:00 AM 53.1°F11.7°C 52.5°F11.4°C 98% 4.6 mph N7.4 kmh N 5.8 mph9.3 kmh 29.82 in1009.8 mb - 0.00 in0.0 mm 0.05 in1.3 mm
05:50 AM 53.1°F11.7°C 52.5°F11.4°C 98% 2.3 mph N3.7 kmh N 3.5 mph5.6 kmh 29.82 in1009.8 mb - 0.00 in0.0 mm 0.05 in1.3 mm
05:40 AM 53.1°F11.7°C 52.5°F11.4°C 98% 1.2 mph NNW1.9 kmh NNW 3.5 mph5.6 kmh 29.82 in1009.8 mb - 0.00 in0.0 mm 0.05 in1.3 mm
05:30 AM 53.1°F11.7°C 52.5°F11.4°C 98% 2.3 mph N3.7 kmh N 3.5 mph5.6 kmh 29.82 in1009.8 mb - 0.00 in0.0 mm 0.05 in1.3 mm
05:20 AM 53.1°F11.7°C 52.5°F11.4°C 98% 3.5 mph NNW5.6 kmh NNW 3.5 mph5.6 kmh 29.82 in1009.8 mb - 0.00 in0.0 mm 0.05 in1.3 mm
05:10 AM 53.1°F11.7°C 52.5°F11.4°C 98% Calm Calm -- 29.82 in1009.8 mb - 0.00 in0.0 mm 0.05 in1.3 mm
05:00 AM 53.1°F11.7°C 52.5°F11.4°C 98% Calm Calm -- 29.82 in1009.8 mb - 0.00 in0.0 mm 0.05 in1.3 mm
04:50 AM 53.1°F11.7°C 52.5°F11.4°C 98% Calm Calm -- 29.82 in1009.8 mb - 0.00 in0.0 mm 0.05 in1.3 mm
04:40 AM 53.1°F11.7°C 52.5°F11.4°C 98% Calm Calm -- 29.82 in1009.8 mb - 0.00 in0.0 mm 0.05 in1.3 mm
04:30 AM 53.2°F11.8°C 52.7°F11.5°C 98% Calm Calm -- 29.82 in1009.8 mb - 0.00 in0.0 mm 0.05 in1.3 mm
04:20 AM 53.6°F12.0°C 53.0°F11.7°C 98% Calm Calm -- 29.82 in1009.8 mb - 0.00 in0.0 mm 0.05 in1.3 mm
04:10 AM 54.0°F12.2°C 53.4°F11.9°C 98% Calm Calm -- 29.82 in1009.8 mb - 0.00 in0.0 mm 0.05 in1.3 mm
04:00 AM 54.1°F12.3°C 53.6°F12.0°C 98% Calm Calm -- 29.82 in1009.8 mb - 0.00 in0.0 mm 0.05 in1.3 mm
03:50 AM 54.3°F12.4°C 53.8°F12.1°C 98% Calm Calm -- 29.82 in1009.8 mb - 0.00 in0.0 mm 0.05 in1.3 mm
03:40 AM 54.5°F12.5°C 53.9°F12.2°C 98% Calm Calm -- 29.82 in1009.8 mb - 0.00 in0.0 mm 0.05 in1.3 mm
03:30 AM 54.3°F12.4°C 53.8°F12.1°C 98% Calm Calm -- 29.82 in1009.8 mb - 0.00 in0.0 mm 0.05 in1.3 mm
03:20 AM 54.3°F12.4°C 53.8°F12.1°C 98% Calm Calm -- 29.86 in1011.2 mb - 0.00 in0.0 mm 0.05 in1.3 mm
03:10 AM 54.3°F12.4°C 53.8°F12.1°C 98% Calm Calm -- 29.86 in1011.2 mb - 0.00 in0.0 mm 0.05 in1.3 mm
03:00 AM 54.3°F12.4°C 53.8°F12.1°C 98% Calm Calm -- 29.86 in1011.2 mb - 0.00 in0.0 mm 0.05 in1.3 mm
02:50 AM 54.1°F12.3°C 53.6°F12.0°C 98% Calm Calm -- 29.86 in1011.2 mb - 0.00 in0.0 mm 0.05 in1.3 mm
02:40 AM 54.1°F12.3°C 53.6°F12.0°C 98% Calm Calm -- 29.86 in1011.2 mb - 0.00 in0.0 mm 0.05 in1.3 mm
02:30 AM 54.1°F12.3°C 53.6°F12.0°C 98% Calm Calm -- 29.86 in1011.2 mb - 0.00 in0.0 mm 0.05 in1.3 mm
02:20 AM 54.3°F12.4°C 53.8°F12.1°C 98% Calm Calm -- 29.86 in1011.2 mb - 0.00 in0.0 mm 0.05 in1.3 mm
02:10 AM 54.3°F12.4°C 53.8°F12.1°C 98% Calm Calm -- 29.86 in1011.2 mb - 0.00 in0.0 mm 0.05 in1.3 mm
02:00 AM 54.5°F12.5°C 53.9°F12.2°C 98% Calm Calm -- 29.86 in1011.2 mb - 0.00 in0.0 mm 0.05 in1.3 mm
01:50 AM 54.5°F12.5°C 53.9°F12.2°C 98% Calm Calm -- 29.86 in1011.2 mb - 0.00 in0.0 mm 0.05 in1.3 mm
01:40 AM 54.5°F12.5°C 53.9°F12.2°C 98% Calm Calm -- 29.86 in1011.2 mb - 0.05 in1.3 mm 0.05 in1.3 mm
01:30 AM 54.5°F12.5°C 53.9°F12.2°C 98% Calm Calm -- 29.86 in1011.2 mb - 0.05 in1.3 mm 0.05 in1.3 mm
01:20 AM 54.5°F12.5°C 53.9°F12.2°C 98% Calm Calm -- 29.88 in1011.9 mb - 0.05 in1.3 mm 0.05 in1.3 mm
01:10 AM 54.5°F12.5°C 53.9°F12.2°C 98% Calm Calm -- 29.88 in1011.9 mb - 0.05 in1.3 mm 0.05 in1.3 mm
01:00 AM 54.6°F12.6°C 54.0°F12.2°C 98% Calm Calm -- 29.88 in1011.9 mb - 0.05 in1.3 mm 0.05 in1.3 mm
12:50 AM 54.7°F12.6°C 54.1°F12.3°C 98% Calm Calm -- 29.88 in1011.9 mb - 0.05 in1.3 mm 0.05 in1.3 mm
12:40 AM 54.9°F12.7°C 54.3°F12.4°C 98% Calm Calm -- 29.88 in1011.9 mb - 0.00 in0.0 mm 0.00 in0.0 mm
12:30 AM 54.9°F12.7°C 54.3°F12.4°C 98% Calm Calm -- 29.88 in1011.9 mb - 0.00 in0.0 mm 0.00 in0.0 mm
12:20 AM 54.9°F12.7°C 54.3°F12.4°C 98% Calm Calm -- 29.88 in1011.9 mb - 0.00 in0.0 mm 0.00 in0.0 mm
12:10 AM 54.9°F12.7°C 54.3°F12.4°C 98% Calm Calm -- 29.88 in1011.9 mb - 0.00 in0.0 mm 0.00 in0.0 mm
12:00 AM 54.8°F12.7°C 54.3°F12.4°C 98% Calm Calm -- 29.88 in1011.9 mb - 0.00 in0.0 mm 0.00 in0.0 mm